Weather History for Prairie Du Chien, WI

Change the Weather History Date:

Sunday, April 6, 2014

  Actual Average Record
Temperature  
Mean Temperature 48 °F -  
Max Temperature 61 °F 56 °F 87 °F (1991)
Min Temperature 34 °F 31 °F 2 °F (1982)
Degree Days  
Heating Degree Days 18    
Moisture  
Dew Point 32 °F    
Average Humidity 54    
Maximum Humidity 78    
Minimum Humidity 37    
Precipitation  
Precipitation 0.00 in - - ()
Sea Level Pressure  
Sea Level Pressure 29.98 in    
Wind  
Wind Speed 3 mph (South)    
Max Wind Speed 13 mph    
Max Gust Speed 16 mph    
Visibility 10 miles    
Events      
Averages and records for this station are not official NWS values.
T = Trace of Precipitation, MM = Missing Value Source: NWS Daily Summary

Daily Weather History Graph

Daily Weather History Graph

Search for Another Location

Airport:

Trip Planner

Search our weather history database for the weather conditions in past years. The results will help you decide how hot, cold, wet, or windy it might be!

Date:

Astronomy

Apr. 06, 2014 Rise Set
Actual Time 6:37 AM CDT 7:36 PM CDT
Civil Twilight 6:08 AM CDT 8:05 PM CDT
Nautical Twilight 5:34 AM CDT 8:40 PM CDT
Astronomical Twilight 4:58 AM CDT 9:16 PM CDT
Moon 11:34 AM CDT (4/6) 1:37 AM CDT (4/6)
Length of Visible Light 13h 56m
Length of Day
12h 58m
Waxing Crescent, 44% of the Moon is Illuminated
Apr 6
Waxing Crescent
Apr 7
First Quarter
Apr 15
Full
Apr 22
Last Quarter
Apr 29
New

Hourly Weather History & Observations

Time (CDT) Temp. Windchill Dew Point Humidity Pressure Visibility Wind Dir Wind Speed Gust Speed Precip Events Conditions
12:15 AM 37.6 °F - 27.5 °F 67% 30.08 in 10.0 mi Calm Calm - N/A   Clear
12:35 AM 36.7 °F - 26.6 °F 67% 30.08 in 10.0 mi Calm Calm - N/A   Clear
12:55 AM 36.7 °F 34.1 °F 27.0 °F 68% 30.07 in 10.0 mi ESE 3.5 mph - N/A   Clear
1:15 AM 37.8 °F - 27.1 °F 66% 30.07 in 10.0 mi Calm Calm - N/A   Clear
1:35 AM 37.9 °F - 27.3 °F 66% 30.07 in 10.0 mi Calm Calm - N/A   Clear
1:55 AM 37.8 °F - 27.1 °F 66% 30.07 in 10.0 mi Calm Calm - N/A   Clear
2:15 AM 38.3 °F - 27.9 °F 66% 30.06 in 10.0 mi Calm Calm - N/A   Scattered Clouds
2:35 AM 37.2 °F - 28.2 °F 70% 30.06 in 10.0 mi Calm Calm - N/A   Scattered Clouds
2:55 AM 35.1 °F - 28.9 °F 78% 30.06 in 10.0 mi Calm Calm - N/A   Clear
3:15 AM 35.4 °F - 28.6 °F 76% 30.06 in 10.0 mi Calm Calm - N/A   Clear
3:35 AM 35.1 °F - 28.4 °F 77% 30.06 in 10.0 mi Calm Calm - N/A   Clear
3:55 AM 35.2 °F 32.4 °F 27.3 °F 73% 30.05 in 10.0 mi ESE 3.5 mph - N/A   Clear
4:15 AM 34.9 °F 30.8 °F 27.3 °F 74% 30.05 in 10.0 mi East 4.6 mph - N/A   Scattered Clouds
4:35 AM 36.5 °F - 27.5 °F 70% 30.04 in 10.0 mi Calm Calm - N/A   Scattered Clouds
4:55 AM 36.9 °F - 27.5 °F 69% 30.04 in 10.0 mi Calm Calm - N/A   Mostly Cloudy
5:15 AM 36.7 °F - 27.9 °F 70% 30.05 in 10.0 mi Calm Calm - N/A   Overcast
5:35 AM 37.8 °F - 28.2 °F 68% 30.04 in 10.0 mi Calm Calm - N/A   Overcast
5:55 AM 39.4 °F - 28.4 °F 65% 30.04 in 10.0 mi Calm Calm - N/A   Overcast
6:15 AM 39.6 °F - 29.1 °F 66% 30.05 in 10.0 mi Calm Calm - N/A   Overcast
6:35 AM 40.3 °F 37.1 °F 29.3 °F 65% 30.05 in 10.0 mi SE 4.6 mph - N/A   Overcast
6:55 AM 41.4 °F 38.4 °F 29.5 °F 63% 30.05 in 10.0 mi South 4.6 mph - N/A   Overcast
7:15 AM 42.1 °F 40.2 °F 29.8 °F 62% 30.05 in 10.0 mi South 3.5 mph - N/A   Overcast
7:35 AM 42.3 °F - 30.4 °F 63% 30.05 in 10.0 mi Calm Calm - N/A   Overcast
7:55 AM 43.0 °F 41.3 °F 30.4 °F 61% 30.05 in 10.0 mi South 3.5 mph - N/A   Overcast
8:15 AM 43.3 °F - 30.6 °F 61% 30.05 in 10.0 mi Calm Calm - N/A   Overcast
8:35 AM 43.7 °F 41.1 °F 30.4 °F 59% 30.04 in 10.0 mi SSE 4.6 mph - N/A   Overcast
8:55 AM 43.9 °F - 30.9 °F 60% 30.04 in 10.0 mi Calm Calm - N/A   Overcast
9:15 AM 44.6 °F - 31.1 °F 59% 30.03 in 10.0 mi Calm Calm - N/A   Overcast
9:35 AM 45.1 °F 42.8 °F 31.3 °F 58% 30.02 in 10.0 mi SSE 4.6 mph - N/A   Overcast
9:55 AM 46.8 °F - 31.8 °F 56% 30.02 in 10.0 mi Calm Calm - N/A   Scattered Clouds
10:15 AM 48.9 °F - 32.0 °F 52% 30.02 in 10.0 mi South 5.8 mph - N/A   Clear
10:35 AM 50.5 °F - 32.0 °F 49% 30.01 in 10.0 mi South 8.1 mph - N/A   Clear
10:55 AM 51.6 °F - 31.5 °F 46% 30.01 in 10.0 mi South 8.1 mph 16.1 mph N/A   Clear
11:15 AM 52.0 °F - 31.8 °F 46% 30.00 in 10.0 mi South 11.5 mph - N/A   Clear
11:40 AM 52.0 °F - 32.4 °F 47% 30.00 in 10.0 mi South 10.4 mph - N/A   Clear
11:55 AM 52.7 °F - 32.5 °F 46% 30.00 in 10.0 mi South 4.6 mph - N/A   Clear
12:15 PM 54.5 °F - 33.3 °F 45% 29.99 in 10.0 mi South 6.9 mph - N/A   Clear
12:35 PM 55.8 °F - 33.4 °F 43% 29.97 in 10.0 mi South 8.1 mph - N/A   Clear
12:55 PM 56.3 °F - 33.4 °F 42% 29.96 in 10.0 mi SSW 12.7 mph - N/A   Clear
1:15 PM 56.7 °F - 33.8 °F 42% 29.96 in 10.0 mi SSW 11.5 mph - N/A   Scattered Clouds
1:35 PM 58.1 °F - 33.4 °F 39% 29.95 in 10.0 mi South 8.1 mph - N/A   Scattered Clouds
1:55 PM 58.5 °F - 33.6 °F 39% 29.93 in 10.0 mi South 5.8 mph - N/A   Scattered Clouds
2:15 PM 58.1 °F - 34.0 °F 40% 29.93 in 10.0 mi South 6.9 mph - N/A   Mostly Cloudy
2:35 PM 58.3 °F - 34.2 °F 40% 29.92 in 10.0 mi SSW 4.6 mph - N/A   Overcast
2:55 PM 59.9 °F - 34.2 °F 38% 29.91 in 10.0 mi WSW 9.2 mph - N/A   Scattered Clouds
3:15 PM 61.0 °F - 34.3 °F 37% 29.90 in 10.0 mi West 5.8 mph - N/A   Scattered Clouds
3:35 PM 60.4 °F - 34.7 °F 38% 29.89 in 10.0 mi WSW 3.5 mph - N/A   Mostly Cloudy
3:55 PM 60.6 °F - 35.2 °F 39% 29.89 in 10.0 mi SW 5.8 mph - N/A   Mostly Cloudy
4:15 PM 60.4 °F - 35.2 °F 39% 29.89 in 10.0 mi WSW 5.8 mph - N/A   Mostly Cloudy
4:35 PM 60.1 °F - 35.8 °F 40% 29.89 in 10.0 mi SW 4.6 mph - N/A   Overcast
4:55 PM 59.4 °F - 35.4 °F 41% 29.89 in 10.0 mi South 9.2 mph - N/A   Overcast
5:15 PM 58.5 °F - 35.2 °F 42% 29.89 in 10.0 mi South 9.2 mph - N/A   Overcast
5:35 PM 58.1 °F - 34.9 °F 42% 29.90 in 10.0 mi South 11.5 mph - N/A   Overcast
5:55 PM 58.1 °F - 34.0 °F 40% 29.90 in 10.0 mi South 6.9 mph - N/A   Overcast
6:15 PM 57.4 °F - 34.9 °F 43% 29.90 in 10.0 mi South 4.6 mph - N/A   Overcast
6:35 PM 57.6 °F - 34.5 °F 42% 29.90 in 10.0 mi South 4.6 mph - N/A   Overcast
6:55 PM 57.2 °F - 34.7 °F 43% 29.90 in 10.0 mi South 3.5 mph - N/A   Mostly Cloudy
7:15 PM 56.1 °F - 35.8 °F 46% 29.89 in 10.0 mi SSW 3.5 mph - N/A   Overcast
7:35 PM 56.5 °F - 34.5 °F 44% 29.89 in 10.0 mi South 5.8 mph - N/A   Overcast
7:55 PM 56.7 °F - 33.8 °F 42% 29.90 in 10.0 mi South 5.8 mph - N/A   Overcast
8:15 PM 56.3 °F - 33.8 °F 43% 29.90 in 10.0 mi South 4.6 mph - N/A   Overcast
8:35 PM 55.9 °F - 34.0 °F 44% 29.91 in 10.0 mi South 3.5 mph - N/A   Overcast
8:55 PM 55.8 °F - 34.0 °F 44% 29.91 in 10.0 mi South 3.5 mph - N/A   Overcast
9:15 PM 55.4 °F - 34.3 °F 45% 29.92 in 10.0 mi Calm Calm - N/A   Overcast
9:35 PM 54.5 °F - 34.3 °F 47% 29.92 in 10.0 mi Calm Calm - N/A   Overcast
9:55 PM 54.5 °F - 34.5 °F 47% 29.92 in 10.0 mi Calm Calm - N/A   Overcast
10:15 PM 54.0 °F - 34.7 °F 48% 29.92 in 10.0 mi Calm Calm - N/A   Overcast
10:35 PM 53.6 °F - 34.3 °F 48% 29.92 in 10.0 mi SE 3.5 mph - N/A   Overcast
10:55 PM 51.4 °F - 34.9 °F 53% 29.91 in 10.0 mi Calm Calm - N/A   Mostly Cloudy
11:15 PM 51.3 °F - 34.7 °F 53% 29.90 in 10.0 mi SSE 3.5 mph - N/A   Mostly Cloudy
11:35 PM 49.8 °F - 34.7 °F 56% 29.90 in 10.0 mi Calm Calm - N/A   Overcast
11:55 PM 46.8 °F - 35.6 °F 65% 29.89 in 10.0 mi Calm Calm - N/A   Overcast